THEOS

Satellite information

Favourite Embed

Satellite Type and Status

PAYLOADIN ORBIT

Key statistics

Satellite THEOS at a glance.

Uptime

6124

Days in orbit

Revolutions

≈ 14.2

Per day

Orbit

SSO

Sun Synchronous Orbit

Inclination

98.6

Latest

Satellite identification and parameters

Extended collection of information and parameters for THEOS.

Object identification

Identified? True

Debris? False

Object name: THEOS

International designator: 2008-049A

Object number (NORAD): 33396

Object ID (CCSDS): 33396

Country: THAILAND (THAI)

Current information (Y/N): Y

RCS size: LARGE

Orbital parameters

Period: 101.405 minutes

Inclination: 98.6082 deg

SMA: 7203.307 km

Apoapsis: 825.951 km

Periapsis: 824.392 km

RAAN: 251.3921 deg

Eccentricy: 0.0001082

Argument of periapsis: 95.0117 deg

Mean anomaly: 265.1183 deg

Mean motion: 14.20054166 rev/day

Mean motion (dot): 0.00000031 rev/day2

B* drag term: 0.000034613 1/REarth

Two-line elements (TLE)

Creation date: July 8, 2025, 2:27 a.m.

Reference frame: TEME

Reference center: EARTH

Epoch: July 7, 2025, 8:29 p.m. UTC

TLE line 0: 0 THEOS

TLE line 1: 1 33396U 08049A 25188.85396687 .00000031 00000-0 34613-4 0 9996

TLE line 2: 2 33396 98.6082 251.3921 0001082 95.0117 265.1183 14.20054166869093

Live tracking on map

Real-time ground track for satellite THEOS.

In-orbit conjunctions

There are no conjunctions computed for THEOS, at the moment. Check back to stay up to date, as we update our databases every day.

Go to all conjunctions

Associated space launch

Thai Earth observation satellite

THEOS was lifted into orbit during the mission ‘Dnepr | Thaichote’, on board a Dnepr space rocket.

The launch took place on Oct. 1, 2008, 6:37 a.m. from 370/13.

For more information about the launch, click the button.

Launch to space Dnepr | Thaichote
Dnepr | Thaichote

Agency: N/A

Status: Launch Successful

Launch date: Oct. 1, 2008, 6:37 a.m. UTC

Rocket: Dnepr

Launch pad: 370/13

Location: Dombarovskiy, Russian Federation

...

Latest news about this satellite

There are no fresh news available about this satellite. Check back as we update our databases every day.


Newsletter sign-up

Weekly statistics, charts and insights to help you stay on top of the space industry.